Year,Month,Day,Hour,Minute,Value (Times are PST for temperature in C)
2013,10,17,00,00,7.00
2013,10,17,00,01,7.00
2013,10,17,00,02,7.00
2013,10,17,00,03,7.00
2013,10,17,00,04,7.00
2013,10,17,00,05,7.00
2013,10,17,00,06,7.00
2013,10,17,00,07,7.00
2013,10,17,00,08,7.00
2013,10,17,00,09,7.00
2013,10,17,00,10,7.00
2013,10,17,00,11,7.00
2013,10,17,00,12,7.00
2013,10,17,00,13,6.90
2013,10,17,00,14,7.00
2013,10,17,00,15,6.90
2013,10,17,00,16,6.90
2013,10,17,00,17,7.00
2013,10,17,00,18,7.00
2013,10,17,00,19,7.00
2013,10,17,00,20,7.00
2013,10,17,00,21,7.10
2013,10,17,00,22,7.10
2013,10,17,00,23,7.10
2013,10,17,00,24,7.10
2013,10,17,00,25,7.10
2013,10,17,00,26,7.10
2013,10,17,00,27,7.10
2013,10,17,00,28,7.10
2013,10,17,00,29,7.10
2013,10,17,00,30,7.10
2013,10,17,00,31,7.10
2013,10,17,00,32,7.10
2013,10,17,00,33,7.10
2013,10,17,00,34,7.10
2013,10,17,00,35,7.00
2013,10,17,00,36,7.00
2013,10,17,00,37,7.00
2013,10,17,00,38,7.00
2013,10,17,00,39,6.90
2013,10,17,00,40,6.90
2013,10,17,00,41,6.90
2013,10,17,00,42,6.90
2013,10,17,00,43,6.90
2013,10,17,00,44,6.90
2013,10,17,00,45,6.90
2013,10,17,00,46,6.90
2013,10,17,00,47,6.90
2013,10,17,00,48,6.90
2013,10,17,00,49,6.90
2013,10,17,00,50,6.90
2013,10,17,00,51,6.90
2013,10,17,00,52,6.90
2013,10,17,00,53,6.90
2013,10,17,00,54,6.90
2013,10,17,00,55,6.90
2013,10,17,00,56,6.90
2013,10,17,00,57,6.90
2013,10,17,00,58,6.80
2013,10,17,00,59,6.80
2013,10,17,01,00,6.80
2013,10,17,01,01,6.80
2013,10,17,01,02,6.80
2013,10,17,01,03,6.80
2013,10,17,01,04,6.80
2013,10,17,01,05,6.80
2013,10,17,01,06,6.70
2013,10,17,01,07,6.70
2013,10,17,01,08,6.70
2013,10,17,01,09,6.70
2013,10,17,01,10,6.70
2013,10,17,01,11,6.70
2013,10,17,01,12,6.70
2013,10,17,01,13,6.70
2013,10,17,01,14,6.70
2013,10,17,01,15,6.70
2013,10,17,01,16,6.70
2013,10,17,01,17,6.80
2013,10,17,01,18,6.80
2013,10,17,01,19,6.80
2013,10,17,01,20,6.90
2013,10,17,01,21,6.90
2013,10,17,01,22,6.90
2013,10,17,01,23,6.90
2013,10,17,01,24,6.90
2013,10,17,01,25,6.90
2013,10,17,01,26,6.90
2013,10,17,01,27,6.90
2013,10,17,01,28,6.90
2013,10,17,01,29,6.90
2013,10,17,01,30,6.90
2013,10,17,01,31,6.90
2013,10,17,01,32,6.90
2013,10,17,01,33,6.90
2013,10,17,01,34,6.90
2013,10,17,01,35,6.90
2013,10,17,01,36,6.90
2013,10,17,01,37,6.90
2013,10,17,01,38,6.90
2013,10,17,01,39,6.80
2013,10,17,01,40,6.80
2013,10,17,01,41,6.80
2013,10,17,01,42,6.80
2013,10,17,01,43,6.80
2013,10,17,01,44,6.70
2013,10,17,01,45,6.70
2013,10,17,01,46,6.70
2013,10,17,01,47,6.70
2013,10,17,01,48,6.70
2013,10,17,01,49,6.70
2013,10,17,01,50,6.70
2013,10,17,01,51,6.60
2013,10,17,01,52,6.60
2013,10,17,01,53,6.60
2013,10,17,01,54,6.60
2013,10,17,01,55,6.60
2013,10,17,01,56,6.60
2013,10,17,01,57,6.60
2013,10,17,01,58,6.50
2013,10,17,01,59,6.50
2013,10,17,02,00,6.50
2013,10,17,02,01,6.50
2013,10,17,02,02,6.50
2013,10,17,02,03,6.50
2013,10,17,02,04,6.50
2013,10,17,02,05,6.60
2013,10,17,02,06,6.60
2013,10,17,02,07,6.60
2013,10,17,02,08,6.60
2013,10,17,02,09,6.60
2013,10,17,02,10,6.60
2013,10,17,02,11,6.60
2013,10,17,02,12,6.60
2013,10,17,02,13,6.60
2013,10,17,02,14,6.60
2013,10,17,02,15,6.60
2013,10,17,02,16,6.60
2013,10,17,02,17,6.60
2013,10,17,02,18,6.60
2013,10,17,02,19,6.60
2013,10,17,02,20,6.60
2013,10,17,02,21,6.60
2013,10,17,02,22,6.60
2013,10,17,02,23,6.60
2013,10,17,02,24,6.60
2013,10,17,02,25,6.60
2013,10,17,02,26,6.60
2013,10,17,02,27,6.60
2013,10,17,02,28,6.60
2013,10,17,02,29,6.60
2013,10,17,02,30,6.60
2013,10,17,02,31,6.60
2013,10,17,02,32,6.60
2013,10,17,02,33,6.60
2013,10,17,02,34,6.60
2013,10,17,02,35,6.60
2013,10,17,02,36,6.60
2013,10,17,02,37,6.60
2013,10,17,02,38,6.60
2013,10,17,02,39,6.60
2013,10,17,02,40,6.60
2013,10,17,02,41,6.60
2013,10,17,02,42,6.60
2013,10,17,02,43,6.60
2013,10,17,02,44,6.60
2013,10,17,02,45,6.60
2013,10,17,02,46,6.60
2013,10,17,02,47,6.60
2013,10,17,02,48,6.60
2013,10,17,02,49,6.60
2013,10,17,02,50,6.60
2013,10,17,02,51,6.60
2013,10,17,02,52,6.60
2013,10,17,02,53,6.60
2013,10,17,02,54,6.60
2013,10,17,02,55,6.60
2013,10,17,02,56,6.60
2013,10,17,02,57,6.60
2013,10,17,02,58,6.60
2013,10,17,02,59,6.50
2013,10,17,03,00,6.50
2013,10,17,03,01,6.50
2013,10,17,03,02,6.50
2013,10,17,03,03,6.50
2013,10,17,03,04,6.40
2013,10,17,03,05,6.40
2013,10,17,03,06,6.40
2013,10,17,03,07,6.40
2013,10,17,03,08,6.40
2013,10,17,03,09,6.30
2013,10,17,03,10,6.30
2013,10,17,03,11,6.30
2013,10,17,03,12,6.30
2013,10,17,03,13,6.30
2013,10,17,03,14,6.20
2013,10,17,03,15,6.20
2013,10,17,03,16,6.20
2013,10,17,03,17,6.20
2013,10,17,03,18,6.20
2013,10,17,03,19,6.10
2013,10,17,03,20,6.10
2013,10,17,03,21,6.10
2013,10,17,03,22,6.10
2013,10,17,03,23,6.10
2013,10,17,03,24,6.10
2013,10,17,03,25,6.10
2013,10,17,03,26,6.10
2013,10,17,03,27,6.10
2013,10,17,03,28,6.10
2013,10,17,03,29,6.10
2013,10,17,03,30,6.10
2013,10,17,03,31,6.10
2013,10,17,03,32,6.00
2013,10,17,03,33,6.00
2013,10,17,03,34,6.00
2013,10,17,03,35,6.00
2013,10,17,03,36,6.00
2013,10,17,03,37,5.90
2013,10,17,03,38,5.90
2013,10,17,03,39,5.90
2013,10,17,03,40,5.90
2013,10,17,03,41,5.90
2013,10,17,03,42,5.90
2013,10,17,03,43,5.90
2013,10,17,03,44,5.90
2013,10,17,03,45,5.90
2013,10,17,03,46,5.90
2013,10,17,03,47,5.90
2013,10,17,03,48,5.90
2013,10,17,03,49,5.80
2013,10,17,03,50,5.80
2013,10,17,03,51,5.80
2013,10,17,03,52,5.80
2013,10,17,03,53,5.80
2013,10,17,03,54,5.80
2013,10,17,03,55,5.80
2013,10,17,03,56,5.80
2013,10,17,03,57,5.80
2013,10,17,03,58,5.80
2013,10,17,03,59,5.80
2013,10,17,04,00,5.80
2013,10,17,04,01,5.80
2013,10,17,04,02,5.80
2013,10,17,04,03,5.70
2013,10,17,04,04,5.70
2013,10,17,04,05,5.70
2013,10,17,04,06,5.70
2013,10,17,04,07,5.70
2013,10,17,04,08,5.70
2013,10,17,04,09,5.70
2013,10,17,04,10,5.70
2013,10,17,04,11,5.70
2013,10,17,04,12,5.70
2013,10,17,04,13,5.70
2013,10,17,04,14,5.70
2013,10,17,04,15,5.70
2013,10,17,04,16,5.70
2013,10,17,04,17,5.70
2013,10,17,04,18,5.70
2013,10,17,04,19,5.60
2013,10,17,04,20,5.60
2013,10,17,04,21,5.60
2013,10,17,04,22,5.60
2013,10,17,04,23,5.60
2013,10,17,04,24,5.60
2013,10,17,04,25,5.60
2013,10,17,04,26,5.70
2013,10,17,04,27,5.60
2013,10,17,04,28,5.60
2013,10,17,04,29,5.70
2013,10,17,04,30,5.60
2013,10,17,04,31,5.70
2013,10,17,04,32,5.70
2013,10,17,04,33,5.70
2013,10,17,04,34,5.70
2013,10,17,04,35,5.70
2013,10,17,04,36,5.70
2013,10,17,04,37,5.70
2013,10,17,04,38,5.70
2013,10,17,04,39,5.70
2013,10,17,04,40,5.80
2013,10,17,04,41,5.80
2013,10,17,04,42,5.80
2013,10,17,04,43,5.80
2013,10,17,04,44,5.80
2013,10,17,04,45,5.80
2013,10,17,04,46,5.80
2013,10,17,04,47,5.80
2013,10,17,04,48,5.80
2013,10,17,04,49,5.80
2013,10,17,04,50,5.80
2013,10,17,04,51,5.80
2013,10,17,04,52,5.80
2013,10,17,04,53,5.70
2013,10,17,04,54,5.70
2013,10,17,04,55,5.70
2013,10,17,04,56,5.70
2013,10,17,04,57,5.70
2013,10,17,04,58,5.70
2013,10,17,04,59,5.70
2013,10,17,05,00,5.70
2013,10,17,05,01,5.70
2013,10,17,05,02,5.70
2013,10,17,05,03,5.70
2013,10,17,05,04,5.70
2013,10,17,05,05,5.60
2013,10,17,05,06,5.60
2013,10,17,05,07,5.60
2013,10,17,05,08,5.60
2013,10,17,05,09,5.60
2013,10,17,05,10,5.60
2013,10,17,05,11,5.60
2013,10,17,05,12,5.60
2013,10,17,05,13,5.60
2013,10,17,05,14,5.60
2013,10,17,05,15,5.60
2013,10,17,05,16,5.60
2013,10,17,05,17,5.60
2013,10,17,05,18,5.60
2013,10,17,05,19,5.60
2013,10,17,05,20,5.60
2013,10,17,05,21,5.60
2013,10,17,05,22,5.60
2013,10,17,05,23,5.60
2013,10,17,05,24,5.60
2013,10,17,05,25,5.60
2013,10,17,05,26,5.60
2013,10,17,05,27,5.60
2013,10,17,05,28,5.60
2013,10,17,05,29,5.60
2013,10,17,05,30,5.60
2013,10,17,05,31,5.60
2013,10,17,05,32,5.60
2013,10,17,05,33,5.60
2013,10,17,05,34,5.60
2013,10,17,05,35,5.60
2013,10,17,05,36,5.60
2013,10,17,05,37,5.60
2013,10,17,05,38,5.60
2013,10,17,05,39,5.60
2013,10,17,05,40,5.70
2013,10,17,05,41,5.70
2013,10,17,05,42,5.70
2013,10,17,05,43,5.70
2013,10,17,05,44,5.70
2013,10,17,05,45,5.70
2013,10,17,05,46,5.70
2013,10,17,05,47,5.70
2013,10,17,05,48,5.80
2013,10,17,05,49,5.80
2013,10,17,05,50,5.80
2013,10,17,05,51,5.80
2013,10,17,05,52,5.80
2013,10,17,05,53,5.80
2013,10,17,05,54,5.90
2013,10,17,05,55,5.90
2013,10,17,05,56,5.90
2013,10,17,05,57,5.90
2013,10,17,05,58,5.90
2013,10,17,05,59,6.00
2013,10,17,06,00,6.00
2013,10,17,06,01,6.10
2013,10,17,06,02,6.10
2013,10,17,06,03,6.10
2013,10,17,06,04,6.10
2013,10,17,06,05,6.10
2013,10,17,06,06,6.20
2013,10,17,06,07,6.20
2013,10,17,06,08,6.20
2013,10,17,06,09,6.20
2013,10,17,06,10,6.20
2013,10,17,06,11,6.30
2013,10,17,06,12,6.30
2013,10,17,06,13,6.30
2013,10,17,06,14,6.30
2013,10,17,06,15,6.40
2013,10,17,06,16,6.40
2013,10,17,06,17,6.40
2013,10,17,06,18,6.40
2013,10,17,06,19,6.40
2013,10,17,06,20,6.50
2013,10,17,06,21,6.50
2013,10,17,06,22,6.60
2013,10,17,06,23,6.60
2013,10,17,06,24,6.60
2013,10,17,06,25,6.60
2013,10,17,06,26,6.60
2013,10,17,06,27,6.60
2013,10,17,06,28,6.60
2013,10,17,06,29,6.60
2013,10,17,06,30,6.60
2013,10,17,06,31,6.70
2013,10,17,06,32,6.70
2013,10,17,06,33,6.70
2013,10,17,06,34,6.70
2013,10,17,06,35,6.70
2013,10,17,06,36,6.70
2013,10,17,06,37,6.70
2013,10,17,06,38,6.70
2013,10,17,06,39,6.80
2013,10,17,06,40,6.80
2013,10,17,06,41,6.80
2013,10,17,06,42,6.80
2013,10,17,06,43,6.90
2013,10,17,06,44,6.90
2013,10,17,06,45,6.90
2013,10,17,06,46,7.00
2013,10,17,06,47,7.00
2013,10,17,06,48,7.00
2013,10,17,06,49,7.10
2013,10,17,06,50,7.10
2013,10,17,06,51,7.10
2013,10,17,06,52,7.10
2013,10,17,06,53,7.10
2013,10,17,06,54,7.10
2013,10,17,06,55,7.10
2013,10,17,06,56,7.10
2013,10,17,06,57,7.10
2013,10,17,06,58,7.20
2013,10,17,06,59,7.20
2013,10,17,07,00,7.20
2013,10,17,07,01,7.20
2013,10,17,07,02,7.20
2013,10,17,07,03,7.20
2013,10,17,07,04,7.20
2013,10,17,07,05,7.20
2013,10,17,07,06,7.20
2013,10,17,07,07,7.20
2013,10,17,07,08,7.20
2013,10,17,07,09,7.30
2013,10,17,07,10,7.30
2013,10,17,07,11,7.30
2013,10,17,07,12,7.30
2013,10,17,07,13,7.30
2013,10,17,07,14,7.30
2013,10,17,07,15,7.30
2013,10,17,07,16,7.30
2013,10,17,07,17,7.30
2013,10,17,07,18,7.30
2013,10,17,07,19,7.30
2013,10,17,07,20,7.30
2013,10,17,07,21,7.30
2013,10,17,07,22,7.30
2013,10,17,07,23,7.30
2013,10,17,07,24,7.30
2013,10,17,07,25,7.30
2013,10,17,07,26,7.30
2013,10,17,07,27,7.30
2013,10,17,07,28,7.30
2013,10,17,07,29,7.30
2013,10,17,07,30,7.30
2013,10,17,07,31,7.30
2013,10,17,07,32,7.30
2013,10,17,07,33,7.30
2013,10,17,07,34,7.30
2013,10,17,07,35,7.30
2013,10,17,07,36,7.30
2013,10,17,07,37,7.30
2013,10,17,07,38,7.30
2013,10,17,07,39,7.30
2013,10,17,07,40,7.30
2013,10,17,07,41,7.20
2013,10,17,07,42,7.20
2013,10,17,07,43,7.20
2013,10,17,07,44,7.20
2013,10,17,07,45,7.20
2013,10,17,07,46,7.20
2013,10,17,07,47,7.20
2013,10,17,07,48,7.20
2013,10,17,07,49,7.20
2013,10,17,07,50,7.10
2013,10,17,07,51,7.10
2013,10,17,07,52,7.10
2013,10,17,07,53,7.10
2013,10,17,07,54,7.00
2013,10,17,07,55,7.00
2013,10,17,07,56,7.00
2013,10,17,07,57,6.90
2013,10,17,07,58,6.90
2013,10,17,07,59,6.90
2013,10,17,08,00,6.90
2013,10,17,08,01,6.90
2013,10,17,08,02,6.90
2013,10,17,08,03,6.90
2013,10,17,08,04,6.90
2013,10,17,08,05,6.90
2013,10,17,08,06,6.90
2013,10,17,08,07,6.90
2013,10,17,08,08,6.90
2013,10,17,08,09,6.80
2013,10,17,08,10,6.80
2013,10,17,08,11,6.80
2013,10,17,08,12,6.80
2013,10,17,08,13,6.80
2013,10,17,08,14,6.80
2013,10,17,08,15,6.80
2013,10,17,08,16,6.80
2013,10,17,08,17,6.90
2013,10,17,08,18,6.90
2013,10,17,08,19,6.90
2013,10,17,08,20,6.90
2013,10,17,08,21,6.90
2013,10,17,08,22,6.90
2013,10,17,08,23,6.90
2013,10,17,08,24,6.90
2013,10,17,08,25,6.90
2013,10,17,08,26,6.90
2013,10,17,08,27,6.90
2013,10,17,08,28,6.90
2013,10,17,08,29,6.90
2013,10,17,08,30,7.00
2013,10,17,08,31,7.00
2013,10,17,08,32,7.00
2013,10,17,08,33,7.00
2013,10,17,08,34,7.00
2013,10,17,08,35,7.10
2013,10,17,08,36,7.10
2013,10,17,08,37,7.10
2013,10,17,08,38,7.10
2013,10,17,08,39,7.10
2013,10,17,08,40,7.20
2013,10,17,08,41,7.20
2013,10,17,08,42,7.20
2013,10,17,08,43,7.20
2013,10,17,08,44,7.20
2013,10,17,08,45,7.20
2013,10,17,08,46,7.20
2013,10,17,08,47,7.20
2013,10,17,08,48,7.30
2013,10,17,08,49,7.30
2013,10,17,08,50,7.30
2013,10,17,08,51,7.30
2013,10,17,08,52,7.30
2013,10,17,08,53,7.30
2013,10,17,08,54,7.30
2013,10,17,08,55,7.30
2013,10,17,08,56,7.30
2013,10,17,08,57,7.30
2013,10,17,08,58,7.30
2013,10,17,08,59,7.40
2013,10,17,09,00,7.40
2013,10,17,09,01,7.40
2013,10,17,09,02,7.40
2013,10,17,09,03,7.40
2013,10,17,09,04,7.50
2013,10,17,09,05,7.50
2013,10,17,09,06,7.50
2013,10,17,09,07,7.60
2013,10,17,09,08,7.60
2013,10,17,09,09,7.60
2013,10,17,09,10,7.60
2013,10,17,09,11,7.60
2013,10,17,09,12,7.60
2013,10,17,09,13,7.60
2013,10,17,09,14,7.60
2013,10,17,09,15,7.60
2013,10,17,09,16,7.60
2013,10,17,09,17,7.60
2013,10,17,09,18,7.60
2013,10,17,09,19,7.60
2013,10,17,09,20,7.60
2013,10,17,09,21,7.60
2013,10,17,09,22,7.60
2013,10,17,09,23,7.60
2013,10,17,09,24,7.60
2013,10,17,09,25,7.60
2013,10,17,09,26,7.60
2013,10,17,09,27,7.60
2013,10,17,09,28,7.60
2013,10,17,09,29,7.70
2013,10,17,09,30,7.70
2013,10,17,09,31,7.70
2013,10,17,09,32,7.70
2013,10,17,09,33,7.70
2013,10,17,09,34,7.80
2013,10,17,09,35,7.80
2013,10,17,09,36,7.80
2013,10,17,09,37,7.80
2013,10,17,09,38,7.90
2013,10,17,09,39,7.90
2013,10,17,09,40,7.90
2013,10,17,09,41,8.00
2013,10,17,09,42,8.00
2013,10,17,09,43,8.00
2013,10,17,09,44,8.00
2013,10,17,09,45,8.00
2013,10,17,09,46,8.00
2013,10,17,09,47,8.00
2013,10,17,09,48,8.00
2013,10,17,09,49,8.00
2013,10,17,09,50,8.10
2013,10,17,09,51,8.10
2013,10,17,09,52,8.10
2013,10,17,09,53,8.20
2013,10,17,09,54,8.20
2013,10,17,09,55,8.20
2013,10,17,09,56,8.30
2013,10,17,09,57,8.30
2013,10,17,09,58,8.40
2013,10,17,09,59,8.40
2013,10,17,10,00,8.40
2013,10,17,10,01,8.50
2013,10,17,10,02,8.50
2013,10,17,10,03,8.50
2013,10,17,10,04,8.50
2013,10,17,10,05,8.60
2013,10,17,10,06,8.60
2013,10,17,10,07,8.60
2013,10,17,10,08,8.60
2013,10,17,10,09,8.60
2013,10,17,10,10,8.70
2013,10,17,10,11,8.70
2013,10,17,10,12,8.70
2013,10,17,10,13,8.70
2013,10,17,10,14,8.70
2013,10,17,10,15,8.70
2013,10,17,10,16,8.70
2013,10,17,10,17,8.70
2013,10,17,10,18,8.80
2013,10,17,10,19,8.80
2013,10,17,10,20,8.80
2013,10,17,10,21,8.90
2013,10,17,10,22,8.90
2013,10,17,10,23,9.00
2013,10,17,10,24,9.00
2013,10,17,10,25,9.10
2013,10,17,10,26,9.10
2013,10,17,10,27,9.20
2013,10,17,10,28,9.30
2013,10,17,10,29,9.30
2013,10,17,10,30,9.40
2013,10,17,10,31,9.50
2013,10,17,10,32,9.50
2013,10,17,10,33,9.60
2013,10,17,10,34,9.70
2013,10,17,10,35,9.70
2013,10,17,10,36,9.70
2013,10,17,10,37,9.80
2013,10,17,10,38,9.90
2013,10,17,10,39,10.00
2013,10,17,10,40,10.10
2013,10,17,10,41,10.10
2013,10,17,10,42,10.20
2013,10,17,10,43,10.20
2013,10,17,10,44,10.30
2013,10,17,10,45,10.30
2013,10,17,10,46,10.40
2013,10,17,10,47,10.40
2013,10,17,10,48,10.50
2013,10,17,10,49,10.50
2013,10,17,10,50,10.50
2013,10,17,10,51,10.60
2013,10,17,10,52,10.60
2013,10,17,10,53,10.60
2013,10,17,10,54,10.70
2013,10,17,10,55,10.70
2013,10,17,10,56,10.80
2013,10,17,10,57,10.80
2013,10,17,10,58,10.80
2013,10,17,10,59,10.90
2013,10,17,11,00,10.90
2013,10,17,11,01,11.00
2013,10,17,11,02,11.10
2013,10,17,11,03,11.10
2013,10,17,11,04,11.20
2013,10,17,11,05,11.20
2013,10,17,11,06,11.20
2013,10,17,11,07,11.20
2013,10,17,11,08,11.30
2013,10,17,11,09,11.30
2013,10,17,11,10,11.30
2013,10,17,11,11,11.30
2013,10,17,11,12,11.40
2013,10,17,11,13,11.50
2013,10,17,11,14,11.60
2013,10,17,11,15,11.70
2013,10,17,11,16,11.70
2013,10,17,11,17,11.80
2013,10,17,11,18,11.80
2013,10,17,11,19,11.90
2013,10,17,11,20,12.00
2013,10,17,11,21,12.00
2013,10,17,11,22,12.10
2013,10,17,11,23,12.20
2013,10,17,11,24,12.30
2013,10,17,11,25,12.30
2013,10,17,11,26,12.40
2013,10,17,11,27,12.50
2013,10,17,11,28,12.40
2013,10,17,11,29,12.40
2013,10,17,11,30,12.40
2013,10,17,11,31,12.50
2013,10,17,11,32,12.50
2013,10,17,11,33,12.50
2013,10,17,11,34,12.60
2013,10,17,11,35,12.70
2013,10,17,11,36,12.70
2013,10,17,11,37,12.80
2013,10,17,11,38,12.80
2013,10,17,11,39,12.80
2013,10,17,11,40,12.80
2013,10,17,11,41,12.80
2013,10,17,11,42,12.80
2013,10,17,11,43,12.90
2013,10,17,11,44,12.90
2013,10,17,11,45,13.00
2013,10,17,11,46,13.10
2013,10,17,11,47,13.10
2013,10,17,11,48,13.20
2013,10,17,11,49,13.20
2013,10,17,11,50,13.30
2013,10,17,11,51,13.30
2013,10,17,11,52,13.40
2013,10,17,11,53,13.40
2013,10,17,11,54,13.40
2013,10,17,11,55,13.50
2013,10,17,11,56,13.50
2013,10,17,11,57,13.40
2013,10,17,11,58,13.30
2013,10,17,11,59,13.20
2013,10,17,12,00,13.10
2013,10,17,12,01,13.10
2013,10,17,12,02,13.10
2013,10,17,12,03,13.20
2013,10,17,12,04,13.20
2013,10,17,12,05,13.20
2013,10,17,12,06,13.20
2013,10,17,12,07,13.20
2013,10,17,12,08,13.20
2013,10,17,12,09,13.30
2013,10,17,12,10,13.30
2013,10,17,12,11,13.30
2013,10,17,12,12,13.30
2013,10,17,12,13,13.30
2013,10,17,12,14,13.20
2013,10,17,12,15,13.20
2013,10,17,12,16,13.20
2013,10,17,12,17,13.20
2013,10,17,12,18,13.20
2013,10,17,12,19,13.20
2013,10,17,12,20,13.20
2013,10,17,12,21,13.20
2013,10,17,12,22,13.20
2013,10,17,12,23,13.20
2013,10,17,12,24,13.20
2013,10,17,12,25,13.30
2013,10,17,12,26,13.30
2013,10,17,12,27,13.20
2013,10,17,12,28,13.20
2013,10,17,12,29,13.20
2013,10,17,12,30,13.20
2013,10,17,12,31,13.20
2013,10,17,12,32,13.30
2013,10,17,12,33,13.40
2013,10,17,12,34,13.40
2013,10,17,12,35,13.50
2013,10,17,12,36,13.60
2013,10,17,12,37,13.60
2013,10,17,12,38,13.60
2013,10,17,12,39,13.60
2013,10,17,12,40,13.60
2013,10,17,12,41,13.60
2013,10,17,12,42,13.70
2013,10,17,12,43,13.70
2013,10,17,12,44,13.80
2013,10,17,12,45,13.80
2013,10,17,12,46,13.90
2013,10,17,12,47,13.90
2013,10,17,12,48,14.00
2013,10,17,12,49,14.00
2013,10,17,12,50,14.00
2013,10,17,12,51,14.10
2013,10,17,12,52,14.10
2013,10,17,12,53,14.10
2013,10,17,12,54,14.20
2013,10,17,12,55,14.30
2013,10,17,12,56,14.30
2013,10,17,12,57,14.30
2013,10,17,12,58,14.30
2013,10,17,12,59,14.30
2013,10,17,13,00,14.40
2013,10,17,13,01,14.30
2013,10,17,13,02,14.30
2013,10,17,13,03,14.30
2013,10,17,13,04,14.20
2013,10,17,13,05,14.10
2013,10,17,13,06,14.10
2013,10,17,13,07,14.10
2013,10,17,13,08,14.10
2013,10,17,13,09,14.10
2013,10,17,13,10,14.20
2013,10,17,13,11,14.20
2013,10,17,13,12,14.10
2013,10,17,13,13,14.10
2013,10,17,13,14,14.10
2013,10,17,13,15,14.10
2013,10,17,13,16,14.10
2013,10,17,13,17,14.10
2013,10,17,13,18,14.00
2013,10,17,13,19,13.90
2013,10,17,13,20,13.80
2013,10,17,13,21,13.80
2013,10,17,13,22,13.70
2013,10,17,13,23,13.60
2013,10,17,13,24,13.50
2013,10,17,13,25,13.30
2013,10,17,13,26,13.30
2013,10,17,13,27,13.20
2013,10,17,13,28,13.10
2013,10,17,13,29,13.00
2013,10,17,13,30,13.00
2013,10,17,13,31,13.10
2013,10,17,13,32,13.00
2013,10,17,13,33,12.90
2013,10,17,13,34,12.80
2013,10,17,13,35,12.70
2013,10,17,13,36,12.70
2013,10,17,13,37,12.70
2013,10,17,13,38,12.70
2013,10,17,13,39,12.70
2013,10,17,13,40,12.80
2013,10,17,13,41,12.80
2013,10,17,13,42,12.80
2013,10,17,13,43,12.80
2013,10,17,13,44,12.90
2013,10,17,13,45,12.90
2013,10,17,13,46,12.90
2013,10,17,13,47,12.90
2013,10,17,13,48,12.90
2013,10,17,13,49,12.90
2013,10,17,13,50,12.80
2013,10,17,13,51,12.80
2013,10,17,13,52,12.70
2013,10,17,13,53,12.70
2013,10,17,13,54,12.70
2013,10,17,13,55,12.70
2013,10,17,13,56,12.80
2013,10,17,13,57,12.80
2013,10,17,13,58,12.80
2013,10,17,13,59,12.70
2013,10,17,14,00,12.50
2013,10,17,14,01,12.40
2013,10,17,14,02,12.30
2013,10,17,14,03,12.30
2013,10,17,14,04,12.30
2013,10,17,14,05,12.30
2013,10,17,14,06,12.40
2013,10,17,14,07,12.40
2013,10,17,14,08,12.40
2013,10,17,14,09,12.30
2013,10,17,14,10,12.30
2013,10,17,14,11,12.30
2013,10,17,14,12,12.30
2013,10,17,14,13,12.30
2013,10,17,14,14,12.20
2013,10,17,14,15,12.20
2013,10,17,14,16,12.20
2013,10,17,14,17,12.10
2013,10,17,14,18,12.10
2013,10,17,14,19,12.10
2013,10,17,14,20,12.00
2013,10,17,14,21,12.00
2013,10,17,14,22,12.00
2013,10,17,14,23,11.90
2013,10,17,14,24,11.90
2013,10,17,14,25,11.90
2013,10,17,14,26,11.90
2013,10,17,14,27,11.90
2013,10,17,14,28,11.90
2013,10,17,14,29,11.90
2013,10,17,14,30,11.90
2013,10,17,14,31,11.90
2013,10,17,14,32,11.90
2013,10,17,14,33,11.90
2013,10,17,14,34,12.00
2013,10,17,14,35,12.00
2013,10,17,14,36,12.10
2013,10,17,14,37,12.20
2013,10,17,14,38,12.20
2013,10,17,14,39,12.30
2013,10,17,14,40,12.30
2013,10,17,14,41,12.30
2013,10,17,14,42,12.30
2013,10,17,14,43,12.40
2013,10,17,14,44,12.40
2013,10,17,14,45,12.40
2013,10,17,14,46,12.40
2013,10,17,14,47,12.40
2013,10,17,14,48,12.50
2013,10,17,14,49,12.50
2013,10,17,14,50,12.60
2013,10,17,14,51,12.60
2013,10,17,14,52,12.50
2013,10,17,14,53,12.50
2013,10,17,14,54,12.40
2013,10,17,14,55,12.40
2013,10,17,14,56,12.30
2013,10,17,14,57,12.30
2013,10,17,14,58,12.30
2013,10,17,14,59,12.30
2013,10,17,15,00,12.40
2013,10,17,15,01,12.40
2013,10,17,15,02,12.40
2013,10,17,15,03,12.50
2013,10,17,15,04,12.50
2013,10,17,15,05,12.50
2013,10,17,15,06,12.50
2013,10,17,15,07,12.50
2013,10,17,15,08,12.50
2013,10,17,15,09,12.60
2013,10,17,15,10,12.60
2013,10,17,15,11,12.60
2013,10,17,15,12,12.70
2013,10,17,15,13,12.70
2013,10,17,15,14,12.70
2013,10,17,15,15,12.70
2013,10,17,15,16,12.70
2013,10,17,15,17,12.70
2013,10,17,15,18,12.70
2013,10,17,15,19,12.70
2013,10,17,15,20,12.70
2013,10,17,15,21,12.80
2013,10,17,15,22,12.90
2013,10,17,15,23,12.90
2013,10,17,15,24,12.90
2013,10,17,15,25,12.90
2013,10,17,15,26,12.90
2013,10,17,15,27,13.00
2013,10,17,15,28,13.00
2013,10,17,15,29,13.00
2013,10,17,15,30,13.00
2013,10,17,15,31,13.10
2013,10,17,15,32,13.10
2013,10,17,15,33,13.10
2013,10,17,15,34,13.10
2013,10,17,15,35,13.10
2013,10,17,15,36,13.10
2013,10,17,15,37,13.10
2013,10,17,15,38,13.00
2013,10,17,15,39,13.00
2013,10,17,15,40,12.90
2013,10,17,15,41,12.90
2013,10,17,15,42,12.90
2013,10,17,15,43,12.90
2013,10,17,15,44,12.90
2013,10,17,15,45,12.90
2013,10,17,15,46,12.90
2013,10,17,15,47,12.90
2013,10,17,15,48,12.90
2013,10,17,15,49,12.90
2013,10,17,15,50,12.90
2013,10,17,15,51,12.90
2013,10,17,15,52,12.90
2013,10,17,15,53,12.90
2013,10,17,15,54,12.90
2013,10,17,15,55,12.80
2013,10,17,15,56,12.80
2013,10,17,15,57,12.80
2013,10,17,15,58,12.80
2013,10,17,15,59,12.80
2013,10,17,16,00,12.80
2013,10,17,16,01,12.80
2013,10,17,16,02,12.80
2013,10,17,16,03,12.90
2013,10,17,16,04,12.90
2013,10,17,16,05,12.90
2013,10,17,16,06,12.90
2013,10,17,16,07,12.90
2013,10,17,16,08,12.90
2013,10,17,16,09,12.90
2013,10,17,16,10,12.90
2013,10,17,16,11,12.90
2013,10,17,16,12,12.90
2013,10,17,16,13,12.90
2013,10,17,16,14,12.80
2013,10,17,16,15,12.80
2013,10,17,16,16,12.70
2013,10,17,16,17,12.60
2013,10,17,16,18,12.50
2013,10,17,16,19,12.50
2013,10,17,16,20,12.40
2013,10,17,16,21,12.40
2013,10,17,16,22,12.40
2013,10,17,16,23,12.30
2013,10,17,16,24,12.30
2013,10,17,16,25,12.30
2013,10,17,16,26,12.20
2013,10,17,16,27,12.20
2013,10,17,16,28,12.20
2013,10,17,16,29,12.20
2013,10,17,16,30,12.30
2013,10,17,16,31,12.30
2013,10,17,16,32,12.30
2013,10,17,16,33,12.30
2013,10,17,16,34,12.30
2013,10,17,16,35,12.30
2013,10,17,16,36,12.30
2013,10,17,16,37,12.30
2013,10,17,16,38,12.40
2013,10,17,16,39,12.40
2013,10,17,16,40,12.30
2013,10,17,16,41,12.30
2013,10,17,16,42,12.30
2013,10,17,16,43,12.30
2013,10,17,16,44,12.40
2013,10,17,16,45,12.40
2013,10,17,16,46,12.40
2013,10,17,16,47,12.40
2013,10,17,16,48,12.40
2013,10,17,16,49,12.40
2013,10,17,16,50,12.40
2013,10,17,16,51,12.40
2013,10,17,16,52,12.40
2013,10,17,16,53,12.40
2013,10,17,16,54,12.30
2013,10,17,16,55,12.30
2013,10,17,16,56,12.30
2013,10,17,16,57,12.30
2013,10,17,16,58,12.30
2013,10,17,16,59,12.30
2013,10,17,17,00,12.30
2013,10,17,17,01,12.30
2013,10,17,17,02,12.30
2013,10,17,17,03,12.30
2013,10,17,17,04,12.30
2013,10,17,17,05,12.30
2013,10,17,17,06,12.30
2013,10,17,17,07,12.30
2013,10,17,17,08,12.20
2013,10,17,17,09,12.20
2013,10,17,17,10,12.20
2013,10,17,17,11,12.20
2013,10,17,17,12,12.20
2013,10,17,17,13,12.20
2013,10,17,17,14,12.20
2013,10,17,17,15,12.20
2013,10,17,17,16,12.10
2013,10,17,17,17,12.10
2013,10,17,17,18,12.10
2013,10,17,17,19,12.10
2013,10,17,17,20,12.10
2013,10,17,17,21,12.10
2013,10,17,17,22,12.00
2013,10,17,17,23,12.00
2013,10,17,17,24,12.00
2013,10,17,17,25,12.00
2013,10,17,17,26,12.00
2013,10,17,17,27,11.90
2013,10,17,17,28,11.90
2013,10,17,17,29,11.90
2013,10,17,17,30,11.90
2013,10,17,17,31,11.90
2013,10,17,17,32,11.90
2013,10,17,17,33,11.90
2013,10,17,17,34,11.90
2013,10,17,17,35,11.90
2013,10,17,17,36,11.90
2013,10,17,17,37,11.90
2013,10,17,17,38,11.90
2013,10,17,17,39,11.90
2013,10,17,17,40,11.80
2013,10,17,17,41,11.80
2013,10,17,17,42,11.80
2013,10,17,17,43,11.80
2013,10,17,17,44,11.80
2013,10,17,17,45,11.80
2013,10,17,17,46,11.80
2013,10,17,17,47,11.80